Weather History for Appleton, MN

Change the Weather History Date:

Thursday, October 25, 2012

  Actual Average Record
Temperature  
Mean Temperature 36 °F -  
Max Temperature 39 °F 50 °F 73 °F (2000)
Min Temperature 33 °F 32 °F 21 °F (2005)
Degree Days  
Heating Degree Days 29    
Moisture  
Dew Point 30 °F    
Average Humidity 77    
Maximum Humidity 93    
Minimum Humidity 60    
Precipitation  
Precipitation 0.05 in - - ()
Sea Level Pressure  
Sea Level Pressure 30.01 in    
Wind  
Wind Speed 19 mph (NW)    
Max Wind Speed 25 mph    
Max Gust Speed 31 mph    
Visibility 9 miles    
Events Snow    
Averages and records for this station are not official NWS values.
T = Trace of Precipitation, MM = Missing Value Source: NWS Daily Summary

Daily Weather History Graph

Daily Weather History Graph

Search for Another Location

Airport:

Trip Planner

Search our weather history database for the weather conditions in past years. The results will help you decide how hot, cold, wet, or windy it might be!

Date:

Astronomy

Oct. 25, 2012 Rise Set
Actual Time 7:54 AM CDT 6:21 PM CDT
Civil Twilight 7:23 AM CDT 6:51 PM CDT
Nautical Twilight 6:49 AM CDT 7:26 PM CDT
Astronomical Twilight 6:15 AM CDT 8:00 PM CDT
Moon 4:16 PM CDT (10/25) 3:41 AM CDT (10/25)
Length of Visible Light 11h 27m
Length of Day
10h 27m
Waxing Gibbous, 84% of the Moon is Illuminated
Oct 25
Waxing Gibbous
Oct 29
Full
Nov 6
Last Quarter
Nov 13
New
Nov 20
First Quarter

Hourly Weather History & Observations

Time (CDT) Temp. Windchill Dew Point Humidity Pressure Visibility Wind Dir Wind Speed Gust Speed Precip Events Conditions
12:13 AM 39.2 °F 29.3 °F 35.6 °F 87% 29.92 in 10.0 mi NNW 20.7 mph 25.3 mph N/A   Overcast
12:34 AM 39.2 °F 29.3 °F 33.8 °F 81% 29.91 in 10.0 mi NNW 20.7 mph 26.5 mph N/A   Overcast
12:53 AM 37.4 °F 26.4 °F 33.8 °F 87% 29.90 in 10.0 mi NNW 23.0 mph 27.6 mph N/A   Overcast
1:13 AM 37.4 °F 26.6 °F 33.8 °F 87% 29.89 in 10.0 mi NNW 21.9 mph 28.8 mph N/A   Overcast
1:33 AM 35.6 °F 24.8 °F 33.8 °F 93% 29.90 in 7.0 mi NNW 19.6 mph 27.6 mph N/A   Overcast
1:53 AM 35.6 °F 24.2 °F 33.8 °F 93% 29.91 in 7.0 mi NNW 21.9 mph 26.5 mph N/A   Overcast
2:34 AM 35.6 °F 23.4 °F 33.8 °F 93% 29.89 in 5.0 mi North 25.3 mph 28.8 mph N/A Snow Light Snow
2:54 AM 35.6 °F 24.0 °F 32.0 °F 87% 29.89 in 4.0 mi North 23.0 mph 29.9 mph N/A Snow Light Snow
3:13 AM 35.6 °F 24.2 °F 32.0 °F 87% 29.90 in 4.0 mi North 21.9 mph 31.1 mph N/A Snow Light Snow
3:33 AM 35.6 °F 25.2 °F 32.0 °F 87% 29.92 in 3.0 mi NNW 18.4 mph 24.2 mph 0.01 in Snow Light Snow
3:53 AM 33.8 °F 22.8 °F 32.0 °F 93% 29.90 in 2.5 mi NNW 18.4 mph 21.9 mph 0.01 in Snow Light Snow
4:13 AM 33.8 °F 23.5 °F 32.0 °F 93% 29.91 in 1.8 mi NNW 16.1 mph 19.6 mph N/A Snow Light Snow
4:33 AM 33.8 °F 24.8 °F 32.0 °F 93% 29.91 in 1.8 mi NNW 12.7 mph - N/A Snow Light Snow
4:53 AM 33.8 °F 23.9 °F 32.0 °F 93% 29.91 in 1.8 mi NNW 15.0 mph - N/A Snow Light Snow
5:14 AM 33.8 °F 22.5 °F 32.0 °F 93% 29.90 in 2.5 mi NNW 19.6 mph 24.2 mph N/A Snow Light Snow
5:33 AM 33.8 °F 23.2 °F 32.0 °F 93% 29.90 in 1.8 mi NNW 17.3 mph 25.3 mph N/A Snow Light Snow
5:54 AM 33.8 °F 22.2 °F 32.0 °F 93% 29.90 in 2.5 mi NNW 20.7 mph 26.5 mph N/A Snow Light Snow
6:13 AM 33.8 °F 22.8 °F 30.2 °F 87% 29.90 in 10.0 mi NNW 18.4 mph 28.8 mph N/A Snow Light Snow
7:34 AM 35.6 °F 25.5 °F 30.2 °F 81% 29.92 in 10.0 mi NNW 17.3 mph 21.9 mph N/A   Mostly Cloudy
7:54 AM 35.6 °F 25.5 °F 30.2 °F 81% 29.92 in 10.0 mi NNW 17.3 mph 21.9 mph N/A   Overcast
8:13 AM 35.6 °F 25.5 °F 30.2 °F 81% 29.93 in 10.0 mi NNW 17.3 mph 21.9 mph N/A   Mostly Cloudy
8:33 AM 35.6 °F 25.9 °F 30.2 °F 81% 29.93 in 10.0 mi NNW 16.1 mph - N/A   Scattered Clouds
8:53 AM 35.6 °F 25.2 °F 30.2 °F 81% 29.95 in 10.0 mi NNW 18.4 mph 24.2 mph N/A   Scattered Clouds
9:13 AM 35.6 °F 25.5 °F 30.2 °F 81% 29.95 in 10.0 mi NNW 17.3 mph - N/A   Scattered Clouds
9:33 AM 35.6 °F 25.9 °F 30.2 °F 81% 29.96 in 10.0 mi NNW 16.1 mph 23.0 mph N/A   Scattered Clouds
9:53 AM 35.6 °F 25.5 °F 30.2 °F 81% 29.96 in 10.0 mi NNW 17.3 mph 25.3 mph N/A   Scattered Clouds
10:13 AM 35.6 °F 25.2 °F 30.2 °F 81% 29.98 in 10.0 mi NW 18.4 mph 25.3 mph N/A   Scattered Clouds
10:33 AM 35.6 °F 24.2 °F 30.2 °F 81% 29.98 in 10.0 mi NW 21.9 mph 28.8 mph N/A   Scattered Clouds
10:53 AM 35.6 °F 25.9 °F 30.2 °F 81% 29.98 in 10.0 mi NW 16.1 mph 24.2 mph N/A   Clear
11:13 AM 35.6 °F 24.8 °F 30.2 °F 81% 29.98 in 10.0 mi NW 19.6 mph 24.2 mph N/A   Clear
11:33 AM 35.6 °F 25.2 °F 30.2 °F 81% 29.99 in 10.0 mi NW 18.4 mph 23.0 mph 0.01 in   Clear
11:53 AM 35.6 °F 24.8 °F 30.2 °F 81% 29.99 in 10.0 mi NW 19.6 mph 26.5 mph 0.01 in   Clear
12:33 PM 35.6 °F 24.5 °F 30.2 °F 81% 30.00 in 10.0 mi NW 20.7 mph 26.5 mph 0.02 in   Scattered Clouds
12:53 PM 37.4 °F 26.4 °F 30.2 °F 75% 30.00 in 10.0 mi NW 23.0 mph 28.8 mph 0.03 in   Scattered Clouds
1:14 PM 37.4 °F 26.9 °F 30.2 °F 75% 30.00 in 10.0 mi NW 20.7 mph 31.1 mph N/A   Mostly Cloudy
1:34 PM 37.4 °F 26.4 °F 30.2 °F 75% 30.00 in 10.0 mi NW 23.0 mph 29.9 mph N/A   Overcast
1:53 PM 37.4 °F 26.6 °F 30.2 °F 75% 30.00 in 10.0 mi NW 21.9 mph 28.8 mph N/A   Overcast
2:13 PM 37.4 °F 26.6 °F 28.4 °F 70% 30.01 in 10.0 mi NW 21.9 mph 27.6 mph N/A   Overcast
2:33 PM 37.4 °F 26.6 °F 30.2 °F 75% 30.01 in 10.0 mi NW 21.9 mph 27.6 mph N/A   Overcast
2:53 PM 37.4 °F 26.6 °F 28.4 °F 70% 30.01 in 10.0 mi NW 21.9 mph 29.9 mph N/A   Overcast
3:13 PM 37.4 °F 26.9 °F 28.4 °F 70% 30.01 in 10.0 mi NW 20.7 mph 26.5 mph N/A   Overcast
3:34 PM 37.4 °F 26.4 °F 28.4 °F 70% 30.02 in 10.0 mi NW 23.0 mph 28.8 mph N/A   Overcast
3:53 PM 37.4 °F 26.9 °F 28.4 °F 70% 30.04 in 10.0 mi NW 20.7 mph 26.5 mph N/A   Overcast
4:13 PM 37.4 °F 26.9 °F 28.4 °F 70% 30.05 in 10.0 mi NW 20.7 mph 27.6 mph N/A   Overcast
4:33 PM 37.4 °F 27.8 °F 28.4 °F 70% 30.06 in 10.0 mi NW 17.3 mph 26.5 mph N/A   Overcast
4:53 PM 39.2 °F 29.8 °F 28.4 °F 65% 30.07 in 10.0 mi WNW 18.4 mph 27.6 mph N/A   Overcast
5:33 PM 39.2 °F 29.6 °F 26.6 °F 61% 30.08 in 10.0 mi NW 19.6 mph 26.5 mph N/A   Overcast
5:53 PM 37.4 °F 27.8 °F 26.6 °F 65% 30.09 in 10.0 mi WNW 17.3 mph 24.2 mph N/A   Overcast
6:13 PM 37.4 °F 28.9 °F 26.6 °F 65% 30.10 in 10.0 mi WNW 13.8 mph - N/A   Overcast
6:34 PM 37.4 °F 28.9 °F 26.6 °F 65% 30.11 in 10.0 mi NW 13.8 mph 19.6 mph N/A   Overcast
6:53 PM 37.4 °F 28.9 °F 28.4 °F 70% 30.12 in 10.0 mi WNW 13.8 mph - N/A   Overcast
7:13 PM 37.4 °F 28.2 °F 26.6 °F 65% 30.13 in 10.0 mi NW 16.1 mph - N/A   Overcast
7:34 PM 37.4 °F 28.2 °F 26.6 °F 65% 30.14 in 10.0 mi WNW 16.1 mph 19.6 mph N/A   Overcast
7:53 PM 37.4 °F 28.2 °F 26.6 °F 65% 30.15 in 10.0 mi WNW 16.1 mph 19.6 mph N/A   Overcast
8:33 PM 37.4 °F 28.9 °F 26.6 °F 65% 30.16 in 10.0 mi WNW 13.8 mph 19.6 mph N/A   Overcast
8:54 PM 37.4 °F 28.5 °F 26.6 °F 65% 30.16 in 10.0 mi WNW 15.0 mph - N/A   Overcast
9:13 PM 37.4 °F 27.5 °F 26.6 °F 65% 30.16 in 10.0 mi WNW 18.4 mph 24.2 mph N/A   Overcast
9:34 PM 37.4 °F 27.5 °F 26.6 °F 65% 30.17 in 10.0 mi WNW 18.4 mph - N/A   Overcast
9:53 PM 37.4 °F 27.8 °F 24.8 °F 60% 30.18 in 10.0 mi WNW 17.3 mph 24.2 mph N/A   Overcast
10:13 PM 37.4 °F 27.8 °F 24.8 °F 60% 30.19 in 10.0 mi WNW 17.3 mph 23.0 mph N/A   Overcast
10:53 PM 37.4 °F 27.8 °F 26.6 °F 65% 30.20 in 10.0 mi WNW 17.3 mph 23.0 mph N/A   Overcast
11:14 PM 37.4 °F 27.8 °F 24.8 °F 60% 30.20 in 10.0 mi WNW 17.3 mph 23.0 mph N/A   Overcast
11:33 PM 37.4 °F 28.2 °F 26.6 °F 65% 30.21 in 10.0 mi WNW 16.1 mph - N/A   Overcast